User: anonymous   Login
Location: Columbia
(38.9520°N, 92.3340°W)
Time: 10:26:50
(UTC-06:00)
Language:

CZ-2C R/B - Orbit

View from above orbital plane
View from above orbital plane
View from above satellite
View from above satellite

Ground track
Ground track

The orbit data is extracted from the following two-line orbital elements,

1 28480U 04046B   18053.23597260  .00000008  00000-0  18717-4 0  9993
2 28480  98.1844 138.2480 0141580 206.1637 211.9434 14.25666444689861
Epoch (UTC): 22 February 2018 05:39:48
Eccentricity: 0.0141580
inclination: 98.1844°
perigee height: 704 km
apogee height: 908 km
right ascension of ascending node: 138.2480°
argument of perigee: 206.1637°
revolutions per day: 14.25666444
mean anomaly at epoch: 211.9434°
orbit number at epoch: 68986

The dashed part of the orbit path shows where the satellite is in the earth's shadow,  

DLR